Terminal Aerodrome Forecast
Issued by NWS Quad Cities IA IL

Home | Current Version | Previous Version | Text Only | Print | Product List | Glossary Off
Versions: 1 2 3 4 5 6 7 8 9 10 11 12 13 14 15 16 17 18 19

000
FTUS43 KDVN 261750
TAFDBQ
TAF
KDBQ 261750Z 2618/2718 11012G18KT P6SM SCT020 BKN035
      TEMPO 2618/2621 BKN020
     FM270000 13006KT P6SM SCT040
     FM270800 11005KT 4SM BR BKN025
     FM271100 12005KT 1SM BR SCT006 BKN010
     FM271600 13011KT 4SM BR BKN020=

USA.gov is the U.S. government's official web portal to all federal, state and local government web resources and services.